BREEZE-M DEB, 41323

Orbit data source: Space-Track

BREEZE-M DEB, 41323 is space debris in HEO originally from a launch on Thu, 17 May 2012 UTC launched from the Tyuratam Missile And Space Complex (TTMTR). Debris objects in space refer to the collection of defunct objects orbiting the Earth. Examples of debris include non-operational satellites, rocket bodies, and fragments generated from explosions, collisions, or faulty payload assembly.

Loading next visibility...
Identifier
41323, 2012-026K
Orbit
HEO
Country
Flag of CISCIS
Related business
Manufacturer
Khrunichev
Mission
Spacecraft
Bus & Motor
Unknown
Mass
Unknown
Launch date (UTC)
2012-05-17 (13 years ago)
Launch vehicle
Unknown
Launch site
Tyuratam Missile And Space Complex (TTMTR)
Object type
Payload
Rocket body
Debris
Shape & HBR
Unknown shape, 1.1 m
Radar Cross Section
RCS unknown

Expand to show TLE details & history
Last TLE update: 18 hours ago

TLE from 18 hours ago
0 BREEZE-M DEB
1 41323U 12026K   25308.91560723 -.00000034  00000-0  00000-0 0  9993
2 41323  10.0034 148.8460 4102738  21.6457 351.8337  1.77767689 63898
Epoch: 2025-11-04T21:58Z
TLE epoch observation values (Epoch: 2025-11-04T21:58:28.464Z)
Latitude
0.00002°
Longitude
134.90281°
Altitude
10,960.75 km
Speed
5.668 km/s
True Right ascension
09h 55m 40s
True Declination
0° 00' 00"
Sunlit
Object was in daylight at epoch
Visualization orbit readout
Latitude
Unknown
Longitude
Unknown
Altitude
Unknown
Speed
Unknown
Apparent Right ascension
Unknown
Apparent Declination
Unknown
Sunlit
N/A
Visualization observer readout
Local Sidereal Time
12:25:20
Azimuth
Unknown
Elevation
Unknown
Doppler factor
Unknown
Orbital elements
Apogee altitude
34,219.372 km
Perigee altitude
10,598.293 km
Semi-major axis
28,786.97 km
Eccentricity
0.41027
Inclination
10.0034°
RAAN
148.846°
Arg. of periapsis
21.6457°
True anomaly
338.86768°
Mean anomaly
351.8337°
Eccentric anomaly
346.24406°
Mean motion
0.44437 °/min
Orbital period
810.13 mins
BSTAR
0
Loading maneuver chart data...
Computing Atmospheric mass density...
Loading historical data...
Loading historical data...
Loading historical data...
Loading historical data...
Loading historical data...
Loading historical data...
Loading historical data...

Documentation

Showing up to 5 results
|